Погода в Галушкинском

Россия / Волгоградская область     50°44′41″N   42°50′51″E
темп.,
°C
ветер,
м/с
пор.,
м/с
влажн.,
%
обл.,
%
осадки,
мм/ч
давл.,
гПа
погр.,
м
20 мая, пт
пт2000:00+9зюз016969 0.0 101410
03:00+9з227499 0.0 101324
06:00+10зсз247683 0.0 1012129
09:00+14ссз456771 0.4 1012574
12:00+13сз686976 1.6 1012938
15:00+14с8858100 2.3 10121782
18:00+11с596087 0.1 1013839
21:00+7ссз49703 0.1 1015189
21 мая, сб
сб2100:00+5с357711 0.0 101570
03:00+3с227875 0.0 101528
06:00+5ссз227084 0.0 1016128
09:00+10ссв2248100 0.0 10141022
12:00+12юв1141100 0.0 10121535
15:00+13ююв2341100 0.0 10111681
18:00+11ююз3458100 0.0 1010181
21:00+7ююз3468100 0.0 100970
22 мая, вс
вс2200:00+8юв2261100 0.0 100672
03:00+7в3462100 0.0 1005148
06:00+7в4863100 0.0 1003314
09:00+8вюв4967100 0.1 1001561
12:00+7всв51087100 3.3 1000623
15:00+6св6992100 5.5 1000610
18:00+6св4792100 0.9 1001474
21:00+6ссв2693100 0.9 1002277
23 мая, пн
пн2300:00+6сз1192100 0.0 100231
03:00+6сз249599 0.1 100296
06:00+7с358856 0.0 1004184
09:00+11ссв456198 0.0 10041046
12:00+13с3447100 0.0 10052026
15:00+12с4452100 0.0 10061488
18:00+12ссз345641 0.0 10061340
21:00+8ссз347246 0.1 100754
24 мая, вт
вт2400:00+6сз22785 0.0 100813
03:00+4зсз34855 0.0 100952
06:00+7зсз37784 0.0 1010213
09:00+12зсз45574 0.0 1010838
12:00+14зсз4649100 0.0 10091870
15:00+15з464899 0.0 10092082
18:00+14зсз585440 0.0 1010700
21:00+8зсз48685 0.0 1012134